Time,TemperatureF,DewpointF,PressureIn,WindDirection,WindDirectionDegrees,WindSpeedMPH,WindSpeedGustMPH,Humidity,HourlyPrecipIn,Conditions,Clouds,dailyrainin,SoftwareType,DateUTC
2013-02-22 00:04:00,14.4,6.0,29.88,WSW,251,2.0,3.0,70,0.00,,,0.00,weatherlink.com 1.10,2013-02-22 07:04:00,
2013-02-22 00:19:00,14.5,6.0,29.88,WSW,247,0.0,4.0,70,0.00,,,0.00,weatherlink.com 1.10,2013-02-22 07:19:00,
2013-02-22 00:34:00,14.3,6.0,29.88,West,268,0.0,3.0,69,0.00,,,0.00,weatherlink.com 1.10,2013-02-22 07:34:00,
2013-02-22 00:49:00,12.2,4.0,29.88,West,268,0.0,2.0,71,0.00,,,0.00,weatherlink.com 1.10,2013-02-22 07:49:00,
2013-02-22 01:07:00,12.1,5.0,29.88,West,268,0.0,1.0,72,0.00,,,0.00,weatherlink.com 1.10,2013-02-22 08:07:00,
2013-02-22 01:19:00,12.3,5.0,29.88,West,268,0.0,1.0,71,0.00,,,0.00,weatherlink.com 1.10,2013-02-22 08:19:00,
2013-02-22 01:34:00,10.5,3.0,29.87,West,268,0.0,0.0,72,0.00,,,0.00,weatherlink.com 1.10,2013-02-22 08:34:00,
2013-02-22 01:49:00,9.0,3.0,29.87,West,268,0.0,1.0,75,0.00,,,0.00,weatherlink.com 1.10,2013-02-22 08:49:00,
2013-02-22 02:06:00,9.5,4.0,29.87,West,268,0.0,1.0,78,0.00,,,0.00,weatherlink.com 1.10,2013-02-22 09:06:00,
2013-02-22 02:20:00,10.3,3.0,29.88,West,268,0.0,1.0,73,0.00,,,0.00,weatherlink.com 1.10,2013-02-22 09:20:00,
2013-02-22 02:35:00,10.4,4.0,29.88,West,268,0.0,1.0,74,0.00,,,0.00,weatherlink.com 1.10,2013-02-22 09:35:00,
2013-02-22 02:50:00,10.9,4.0,29.88,West,268,0.0,2.0,73,0.00,,,0.00,weatherlink.com 1.10,2013-02-22 09:50:00,
2013-02-22 03:06:00,9.5,2.0,29.89,West,268,0.0,1.0,72,0.00,,,0.00,weatherlink.com 1.10,2013-02-22 10:06:00,
2013-02-22 03:20:00,8.6,3.0,29.89,West,268,0.0,0.0,76,0.00,,,0.00,weatherlink.com 1.10,2013-02-22 10:20:00,
2013-02-22 03:35:00,8.3,3.0,29.89,West,268,0.0,0.0,78,0.00,,,0.00,weatherlink.com 1.10,2013-02-22 10:35:00,
2013-02-22 03:50:00,8.7,3.0,29.89,West,268,0.0,0.0,77,0.00,,,0.00,weatherlink.com 1.10,2013-02-22 10:50:00,
2013-02-22 04:06:00,8.9,3.0,29.90,West,268,0.0,0.0,76,0.00,,,0.00,weatherlink.com 1.10,2013-02-22 11:06:00,
2013-02-22 04:20:00,8.4,2.0,29.90,West,268,0.0,0.0,76,0.00,,,0.00,weatherlink.com 1.10,2013-02-22 11:20:00,
2013-02-22 04:35:00,8.1,2.0,29.90,West,268,0.0,1.0,77,0.00,,,0.00,weatherlink.com 1.10,2013-02-22 11:35:00,
2013-02-22 04:51:00,8.2,2.0,29.90,West,268,0.0,0.0,77,0.00,,,0.00,weatherlink.com 1.10,2013-02-22 11:51:00,
2013-02-22 05:06:00,8.0,2.0,29.91,West,268,0.0,0.0,77,0.00,,,0.00,weatherlink.com 1.10,2013-02-22 12:06:00,
2013-02-22 05:20:00,7.5,2.0,29.91,West,268,0.0,0.0,77,0.00,,,0.00,weatherlink.com 1.10,2013-02-22 12:20:00,
2013-02-22 05:35:00,7.6,2.0,29.92,West,268,0.0,1.0,78,0.00,,,0.00,weatherlink.com 1.10,2013-02-22 12:35:00,
2013-02-22 05:50:00,7.2,2.0,29.92,West,268,0.0,1.0,78,0.00,,,0.00,weatherlink.com 1.10,2013-02-22 12:50:00,
2013-02-22 06:06:00,7.1,2.0,29.93,West,268,0.0,0.0,79,0.00,,,0.00,weatherlink.com 1.10,2013-02-22 13:06:00,
2013-02-22 06:20:00,6.8,1.0,29.93,West,268,0.0,0.0,78,0.00,,,0.00,weatherlink.com 1.10,2013-02-22 13:20:00,
2013-02-22 06:36:00,5.8,0.0,29.94,West,268,0.0,0.0,78,0.00,,,0.00,weatherlink.com 1.10,2013-02-22 13:36:00,
2013-02-22 06:50:00,6.1,2.0,29.94,West,268,0.0,0.0,81,0.00,,,0.00,weatherlink.com 1.10,2013-02-22 13:50:00,
2013-02-22 07:06:00,7.2,2.0,29.95,West,268,0.0,2.0,80,0.00,,,0.00,weatherlink.com 1.10,2013-02-22 14:06:00,
2013-02-22 07:21:00,7.4,2.0,29.95,West,268,0.0,2.0,79,0.00,,,0.00,weatherlink.com 1.10,2013-02-22 14:21:00,
2013-02-22 07:36:00,8.8,3.0,29.95,West,268,0.0,1.0,78,0.00,,,0.00,weatherlink.com 1.10,2013-02-22 14:36:00,
2013-02-22 07:51:00,9.9,4.0,29.96,West,268,0.0,0.0,76,0.00,,,0.00,weatherlink.com 1.10,2013-02-22 14:51:00,
2013-02-22 08:06:00,10.0,4.0,29.96,West,268,0.0,0.0,75,0.00,,,0.00,weatherlink.com 1.10,2013-02-22 15:06:00,
2013-02-22 08:21:00,10.8,4.0,29.98,West,268,0.0,0.0,73,0.00,,,0.00,weatherlink.com 1.10,2013-02-22 15:21:00,
2013-02-22 08:37:00,13.6,5.0,29.98,West,268,0.0,1.0,68,0.00,,,0.00,weatherlink.com 1.10,2013-02-22 15:37:00,
2013-02-22 08:51:00,15.2,5.0,29.98,West,268,0.0,1.0,65,0.00,,,0.00,weatherlink.com 1.10,2013-02-22 15:51:00,
2013-02-22 09:06:00,18.7,6.0,29.98,West,268,0.0,2.0,59,0.00,,,0.00,weatherlink.com 1.10,2013-02-22 16:06:00,
2013-02-22 09:21:00,20.4,6.0,29.98,West,268,0.0,2.0,53,0.00,,,0.00,weatherlink.com 1.10,2013-02-22 16:21:00,
2013-02-22 09:36:00,20.9,7.0,29.98,West,268,1.0,2.0,54,0.00,,,0.00,weatherlink.com 1.10,2013-02-22 16:36:00,
2013-02-22 09:51:00,20.8,6.0,29.98,West,268,0.0,2.0,52,0.00,,,0.00,weatherlink.com 1.10,2013-02-22 16:51:00,
2013-02-22 10:06:00,21.9,6.0,29.98,NNE,26,1.0,3.0,50,0.01,,,0.01,weatherlink.com 1.10,2013-02-22 17:06:00,
2013-02-22 10:21:00,22.9,7.0,29.97,NE,55,2.0,3.0,50,0.01,,,0.01,weatherlink.com 1.10,2013-02-22 17:21:00,
2013-02-22 10:36:00,22.1,6.0,29.98,ESE,120,3.0,4.0,49,0.01,,,0.01,weatherlink.com 1.10,2013-02-22 17:36:00,
2013-02-22 10:51:00,22.5,6.0,29.98,SSE,163,1.0,4.0,50,0.01,,,0.01,weatherlink.com 1.10,2013-02-22 17:51:00,
2013-02-22 11:07:00,23.6,7.0,29.98,ENE,59,0.0,5.0,49,0.01,,,0.02,weatherlink.com 1.10,2013-02-22 18:07:00,
2013-02-22 11:22:00,23.1,6.0,29.98,East,94,1.0,5.0,48,0.01,,,0.02,weatherlink.com 1.10,2013-02-22 18:22:00,
2013-02-22 11:37:00,23.4,6.0,29.98,ENE,67,0.0,4.0,48,0.02,,,0.03,weatherlink.com 1.10,2013-02-22 18:37:00,
2013-02-22 11:52:00,24.2,7.0,29.97,East,91,1.0,6.0,47,0.02,,,0.03,weatherlink.com 1.10,2013-02-22 18:52:00,
2013-02-22 12:06:00,24.8,7.0,29.96,NE,46,0.0,4.0,46,0.01,,,0.03,weatherlink.com 1.10,2013-02-22 19:06:00,
2013-02-22 12:21:00,25.7,8.0,29.95,SSE,151,1.0,7.0,47,0.01,,,0.03,weatherlink.com 1.10,2013-02-22 19:21:00,
2013-02-22 12:36:00,24.7,7.0,29.95,ENE,63,3.0,4.0,47,0.00,,,0.03,weatherlink.com 1.10,2013-02-22 19:36:00,
2013-02-22 12:51:00,24.5,9.0,29.93,ENE,63,0.0,7.0,51,0.00,,,0.03,weatherlink.com 1.10,2013-02-22 19:51:00,
2013-02-22 13:07:00,24.0,8.0,29.93,East,79,1.0,4.0,51,0.00,,,0.03,weatherlink.com 1.10,2013-02-22 20:07:00,
2013-02-22 13:22:00,24.3,8.0,29.93,NE,51,0.0,3.0,51,0.00,,,0.03,weatherlink.com 1.10,2013-02-22 20:22:00,
2013-02-22 13:37:00,23.9,11.0,29.93,NW,308,2.0,6.0,58,0.01,,,0.04,weatherlink.com 1.10,2013-02-22 20:37:00,
2013-02-22 13:52:00,22.0,10.0,29.93,North,9,0.0,3.0,61,0.01,,,0.04,weatherlink.com 1.10,2013-02-22 20:52:00,
2013-02-22 14:07:00,21.1,10.0,29.93,NNE,32,0.0,0.0,63,0.01,,,0.04,weatherlink.com 1.10,2013-02-22 21:07:00,
2013-02-22 14:22:00,21.8,11.0,29.94,NNW,336,2.0,3.0,62,0.01,,,0.04,weatherlink.com 1.10,2013-02-22 21:22:00,
2013-02-22 14:37:00,20.8,8.0,29.94,NW,323,0.0,3.0,59,0.00,,,0.04,weatherlink.com 1.10,2013-02-22 21:37:00,
2013-02-22 14:52:00,20.1,10.0,29.95,NNW,327,2.0,3.0,64,0.00,,,0.04,weatherlink.com 1.10,2013-02-22 21:52:00,
2013-02-22 15:07:00,20.4,9.0,29.95,NW,325,0.0,0.0,62,0.01,,,0.05,weatherlink.com 1.10,2013-02-22 22:07:00,
2013-02-22 15:22:00,20.0,10.0,29.95,NW,325,0.0,2.0,65,0.01,,,0.05,weatherlink.com 1.10,2013-02-22 22:22:00,
2013-02-22 15:37:00,18.9,11.0,29.96,NW,308,0.0,5.0,70,0.01,,,0.05,weatherlink.com 1.10,2013-02-22 22:37:00,
2013-02-22 15:52:00,17.7,11.0,29.97,NNW,344,0.0,1.0,75,0.01,,,0.05,weatherlink.com 1.10,2013-02-22 22:52:00,
2013-02-22 16:07:00,17.7,12.0,29.96,NNW,344,0.0,0.0,77,0.00,,,0.05,weatherlink.com 1.10,2013-02-22 23:07:00,
2013-02-22 16:22:00,18.7,11.0,29.96,West,273,0.0,0.0,73,0.00,,,0.05,weatherlink.com 1.10,2013-02-22 23:22:00,
2013-02-22 16:37:00,18.8,12.0,29.96,West,273,0.0,2.0,75,0.00,,,0.05,weatherlink.com 1.10,2013-02-22 23:37:00,
2013-02-22 17:08:00,19.1,12.0,29.97,West,273,0.0,0.0,74,0.00,,,0.05,weatherlink.com 1.10,2013-02-23 00:08:00,
2013-02-22 17:23:00,18.2,11.0,29.97,West,273,0.0,0.0,73,0.00,,,0.05,weatherlink.com 1.10,2013-02-23 00:23:00,
2013-02-22 17:38:00,17.0,10.0,29.98,West,273,0.0,0.0,75,0.00,,,0.05,weatherlink.com 1.10,2013-02-23 00:38:00,
2013-02-22 17:53:00,15.5,10.0,29.98,West,273,0.0,0.0,78,0.00,,,0.05,weatherlink.com 1.10,2013-02-23 00:53:00,
2013-02-22 18:07:00,14.1,9.0,30.00,West,260,2.0,2.0,80,0.00,,,0.05,weatherlink.com 1.10,2013-02-23 01:07:00,
2013-02-22 18:22:00,13.0,9.0,30.01,SW,235,0.0,2.0,82,0.00,,,0.05,weatherlink.com 1.10,2013-02-23 01:22:00,
2013-02-22 18:37:00,12.5,8.0,30.01,SW,235,0.0,0.0,83,0.00,,,0.05,weatherlink.com 1.10,2013-02-23 01:37:00,
2013-02-22 18:52:00,12.1,7.0,30.02,SW,235,0.0,0.0,78,0.00,,,0.05,weatherlink.com 1.10,2013-02-23 01:52:00,
2013-02-22 19:08:00,11.7,5.0,30.03,SW,235,0.0,0.0,73,0.00,,,0.05,weatherlink.com 1.10,2013-02-23 02:08:00,
2013-02-22 19:23:00,11.5,4.0,30.03,SW,235,0.0,0.0,72,0.00,,,0.05,weatherlink.com 1.10,2013-02-23 02:23:00,
2013-02-22 19:39:00,11.7,3.0,30.03,WSW,248,0.0,2.0,68,0.00,,,0.05,weatherlink.com 1.10,2013-02-23 02:39:00,
2013-02-22 19:53:00,11.1,2.0,30.04,SW,236,0.0,2.0,67,0.00,,,0.05,weatherlink.com 1.10,2013-02-23 02:53:00,
2013-02-22 20:08:00,11.3,1.0,30.05,WSW,238,0.0,0.0,64,0.00,,,0.05,weatherlink.com 1.10,2013-02-23 03:08:00,
2013-02-22 20:23:00,10.1,0.0,30.05,WSW,251,0.0,2.0,65,0.00,,,0.05,weatherlink.com 1.10,2013-02-23 03:23:00,
2013-02-22 20:38:00,9.7,0.0,30.06,WSW,251,0.0,0.0,66,0.00,,,0.05,weatherlink.com 1.10,2013-02-23 03:38:00,
2013-02-22 20:53:00,8.8,0.0,30.05,WSW,251,0.0,0.0,67,0.00,,,0.05,weatherlink.com 1.10,2013-02-23 03:53:00,
2013-02-22 21:08:00,9.0,0.0,30.06,WSW,251,0.0,0.0,66,0.00,,,0.05,weatherlink.com 1.10,2013-02-23 04:08:00,
2013-02-22 21:23:00,9.6,0.0,30.06,South,191,0.0,3.0,66,0.00,,,0.05,weatherlink.com 1.10,2013-02-23 04:23:00,
2013-02-22 21:38:00,9.9,0.0,30.07,South,191,0.0,0.0,65,0.00,,,0.05,weatherlink.com 1.10,2013-02-23 04:38:00,
2013-02-22 21:53:00,9.2,-1.0,30.07,West,259,0.0,2.0,63,0.00,,,0.05,weatherlink.com 1.10,2013-02-23 04:53:00,
2013-02-22 22:09:00,8.5,-2.0,30.07,West,259,0.0,0.0,64,0.00,,,0.05,weatherlink.com 1.10,2013-02-23 05:09:00,
2013-02-22 22:24:00,7.9,-2.0,30.07,West,259,0.0,2.0,65,0.00,,,0.05,weatherlink.com 1.10,2013-02-23 05:24:00,
2013-02-22 22:39:00,8.0,-2.0,30.07,West,259,0.0,2.0,64,0.00,,,0.05,weatherlink.com 1.10,2013-02-23 05:39:00,
2013-02-22 22:54:00,8.5,-2.0,30.07,West,259,0.0,2.0,62,0.00,,,0.05,weatherlink.com 1.10,2013-02-23 05:54:00,
2013-02-22 23:09:00,9.2,-2.0,30.07,WSW,258,0.0,2.0,61,0.00,,,0.05,weatherlink.com 1.10,2013-02-23 06:09:00,
2013-02-22 23:24:00,9.3,-2.0,30.07,West,273,0.0,3.0,60,0.00,,,0.05,weatherlink.com 1.10,2013-02-23 06:24:00,
2013-02-22 23:39:00,8.4,-3.0,30.07,SW,236,0.0,5.0,60,0.00,,,0.05,weatherlink.com 1.10,2013-02-23 06:39:00,
2013-02-22 23:54:00,8.3,-3.0,30.07,ESE,119,1.0,4.0,60,0.00,,,0.05,weatherlink.com 1.10,2013-02-23 06:54:00,